MFX070 UZST-UZTT

Flight info

Callsign MFX070
Flight time N/A
Altitude 37000
Route FIZLE2A FIZLE Y300 ARPIZ/K0824F390 Y300 USETU/K0820F380 M741 RONVU/K0813F390 Q325 TITAR Y92 NETAT M168 KUFIM KUFIM2W
Aircraft A20N/M-SDE2E3FGHIRWXY/LB1

Departure

Time N/A
Airport UZST

Arrival

Time 2026-04-20 16:08
Airport Tashkent International Airport (UZTT)
Time Latitude Longitude Altitude Speed Heading
2026-04-20 14:43 37.28167 67.31726 1032 ft 0 kts 247°
2026-04-20 15:04 37.28166 67.31721 1033 ft 1 kts 247°
2026-04-20 15:05 37.28161 67.31707 1033 ft 2 kts 247°
2026-04-20 15:05 37.28155 67.31685 1033 ft 3 kts 259°
2026-04-20 15:05 37.28158 67.31656 1033 ft 3 kts 296°
2026-04-20 15:05 37.28181 67.31634 1033 ft 4 kts 334°
2026-04-20 15:06 37.28213 67.31615 1033 ft 5 kts 336°
2026-04-20 15:06 37.28252 67.31593 1033 ft 6 kts 324°
2026-04-20 15:06 37.28268 67.31541 1033 ft 7 kts 260°
2026-04-20 15:06 37.28250 67.31480 1033 ft 7 kts 246°
2026-04-20 15:07 37.28228 67.31414 1033 ft 8 kts 247°
2026-04-20 15:07 37.28202 67.31341 1033 ft 9 kts 247°
2026-04-20 15:07 37.28175 67.31262 1033 ft 10 kts 246°
2026-04-20 15:07 37.28146 67.31178 1033 ft 10 kts 246°
2026-04-20 15:08 37.28115 67.31087 1033 ft 11 kts 246°
2026-04-20 15:08 37.28091 67.30992 1033 ft 11 kts 277°
2026-04-20 15:08 37.28135 67.30907 1033 ft 11 kts 307°
2026-04-20 15:08 37.28187 67.30823 1033 ft 12 kts 308°
2026-04-20 15:09 37.28241 67.30736 1033 ft 12 kts 307°
2026-04-20 15:09 37.28279 67.30675 1033 ft 13 kts 308°
2026-04-20 15:09 37.28354 67.30553 1033 ft 13 kts 307°
2026-04-20 15:09 37.28413 67.30458 1033 ft 13 kts 307°
2026-04-20 15:10 37.28478 67.30371 1033 ft 13 kts 323°
2026-04-20 15:10 37.28523 67.30338 1033 ft 0 kts 336°
2026-04-20 15:10 37.28529 67.30334 1033 ft 1 kts 336°
2026-04-20 15:10 37.28542 67.30328 1033 ft 2 kts 339°
2026-04-20 15:11 37.28561 67.30319 1033 ft 3 kts 343°
2026-04-20 15:11 37.28588 67.30309 1033 ft 4 kts 342°
2026-04-20 15:11 37.28615 67.30285 1033 ft 5 kts 306°
2026-04-20 15:11 37.28620 67.30238 1033 ft 6 kts 261°
2026-04-20 15:12 37.28609 67.30182 1033 ft 6 kts 255°
2026-04-20 15:12 37.28595 67.30119 1033 ft 7 kts 254°
2026-04-20 15:12 37.28579 67.30048 1033 ft 8 kts 254°
2026-04-20 15:12 37.28568 67.29998 1033 ft 9 kts 254°
2026-04-20 15:13 37.28543 67.29888 1033 ft 10 kts 254°
2026-04-20 15:13 37.28523 67.29800 1033 ft 10 kts 253°
2026-04-20 15:13 37.28502 67.29706 1033 ft 11 kts 254°
2026-04-20 15:13 37.28480 67.29607 1033 ft 11 kts 255°
2026-04-20 15:14 37.28457 67.29507 1033 ft 12 kts 253°
2026-04-20 15:14 37.28434 67.29403 1033 ft 12 kts 264°
2026-04-20 15:14 37.28449 67.29298 1033 ft 12 kts 282°
2026-04-20 15:14 37.28438 67.29193 1033 ft 11 kts 231°
2026-04-20 15:15 37.28388 67.29230 1033 ft 12 kts 65°
2026-04-20 15:15 37.28402 67.29273 1033 ft 0 kts 74°
2026-04-20 15:16 37.28419 67.29346 1033 ft 26 kts 72°
2026-04-20 15:16 37.28542 67.29909 1033 ft 103 kts 73°
2026-04-20 15:16 37.28810 67.31053 1061 ft 160 kts 73°
2026-04-20 15:16 37.29142 67.32476 1374 ft 178 kts 73°
2026-04-20 15:17 37.29522 67.34107 1588 ft 207 kts 73°
2026-04-20 15:17 37.29968 67.35979 1760 ft 238 kts 68°
2026-04-20 15:17 37.30549 67.37201 2171 ft 250 kts 45°
2026-04-20 15:17 37.32689 67.38367 3112 ft 267 kts 356°
2026-04-20 15:18 37.34419 67.37649 4037 ft 270 kts 321°
2026-04-20 15:18 37.35553 67.35826 5071 ft 270 kts 295°
2026-04-20 15:18 37.36306 67.33669 6059 ft 273 kts 292°
2026-04-20 15:18 37.37039 67.31438 7007 ft 278 kts 292°
2026-04-20 15:19 37.37800 67.29189 7964 ft 282 kts 293°
2026-04-20 15:19 37.38585 67.26930 8879 ft 286 kts 293°
2026-04-20 15:19 37.39488 67.24685 9512 ft 289 kts 306°
2026-04-20 15:19 37.40995 67.22964 9982 ft 291 kts 329°
2026-04-20 15:20 37.42806 67.21781 10765 ft 297 kts 334°
2026-04-20 15:20 37.44678 67.20688 11738 ft 298 kts 335°
2026-04-20 15:20 37.46607 67.19548 12645 ft 301 kts 334°
2026-04-20 15:20 37.48496 67.18404 13519 ft 304 kts 333°
2026-04-20 15:21 37.50442 67.17202 14406 ft 307 kts 333°
2026-04-20 15:21 37.52366 67.16000 15257 ft 310 kts 333°
2026-04-20 15:21 37.54259 67.14811 16069 ft 312 kts 332°
2026-04-20 15:21 37.56215 67.13577 16881 ft 315 kts 332°
2026-04-20 15:22 37.58186 67.12331 17674 ft 318 kts 332°
2026-04-20 15:22 37.60186 67.11064 18448 ft 321 kts 332°
2026-04-20 15:22 37.62172 67.09805 19186 ft 324 kts 332°
2026-04-20 15:22 37.64195 67.08521 19915 ft 326 kts 331°
2026-04-20 15:23 37.65550 67.07661 20391 ft 328 kts 331°
2026-04-20 15:23 37.68308 67.06095 21176 ft 334 kts 340°
2026-04-20 15:23 37.70603 67.05518 21466 ft 339 kts 353°
2026-04-20 15:23 37.72985 67.05558 21746 ft 349 kts
2026-04-20 15:24 37.75458 67.05815 22017 ft 364 kts
2026-04-20 15:24 37.78004 67.06108 22275 ft 378 kts
2026-04-20 15:24 37.79597 67.06290 22425 ft 386 kts
2026-04-20 15:24 37.83338 67.06708 22751 ft 404 kts
2026-04-20 15:25 37.86209 67.07022 22984 ft 417 kts
2026-04-20 15:25 37.89116 67.07336 23197 ft 429 kts
2026-04-20 15:25 37.92129 67.07661 23398 ft 440 kts
2026-04-20 15:25 37.94160 67.07880 23523 ft 447 kts
2026-04-20 15:26 37.98387 67.08336 23766 ft 460 kts
2026-04-20 15:26 38.01586 67.08682 23894 ft 469 kts
2026-04-20 15:26 38.04888 67.09039 23899 ft 479 kts
2026-04-20 15:26 38.08230 67.09401 23902 ft 482 kts
2026-04-20 15:27 38.10426 67.09638 23904 ft 482 kts
2026-04-20 15:27 38.13820 67.10002 23908 ft 482 kts
2026-04-20 15:27 38.17138 67.10358 23915 ft 482 kts
2026-04-20 15:27 38.21625 67.10841 23929 ft 482 kts
2026-04-20 15:28 38.24995 67.11205 23942 ft 482 kts
2026-04-20 15:28 38.28372 67.11572 23955 ft 482 kts
2026-04-20 15:28 38.30567 67.11811 23962 ft 482 kts
2026-04-20 15:28 38.35059 67.12302 23973 ft 482 kts
2026-04-20 15:29 38.38407 67.12669 23980 ft 484 kts
2026-04-20 15:29 38.40689 67.12917 23981 ft 487 kts
2026-04-20 15:29 38.44037 67.13284 23983 ft 488 kts
2026-04-20 15:29 38.48501 67.13773 23985 ft 488 kts
2026-04-20 15:30 38.50743 67.14020 23986 ft 488 kts
2026-04-20 15:30 38.55290 67.14521 23987 ft 488 kts
2026-04-20 15:30 38.58711 67.14897 23987 ft 488 kts
2026-04-20 15:30 38.62087 67.15269 23987 ft 488 kts
2026-04-20 15:31 38.64370 67.15522 23987 ft 488 kts
2026-04-20 15:31 38.67762 67.15896 23987 ft 488 kts
2026-04-20 15:31 38.71144 67.16270 23987 ft 488 kts
2026-04-20 15:31 38.75679 67.16773 23987 ft 487 kts
2026-04-20 15:32 38.79083 67.17150 23987 ft 487 kts
2026-04-20 15:32 38.82458 67.17525 23987 ft 487 kts
2026-04-20 15:32 38.85905 67.17908 23987 ft 487 kts
2026-04-20 15:32 38.89287 67.18285 23986 ft 488 kts
2026-04-20 15:33 38.91520 67.18534 23985 ft 489 kts
2026-04-20 15:33 38.94946 67.18917 23985 ft 491 kts
2026-04-20 15:33 38.99515 67.19428 23984 ft 496 kts
2026-04-20 15:33 39.02855 67.19802 23984 ft 499 kts
2026-04-20 15:34 39.06052 67.20160 23985 ft 501 kts
2026-04-20 15:34 39.09717 67.20571 23986 ft 502 kts
2026-04-20 15:34 39.12068 67.20834 23986 ft 502 kts
2026-04-20 15:34 39.16692 67.21343 23987 ft 502 kts
2026-04-20 15:35 39.20157 67.21727 23987 ft 502 kts
2026-04-20 15:35 39.23663 67.22118 23987 ft 503 kts
2026-04-20 15:35 39.27124 67.22507 23987 ft 503 kts
2026-04-20 15:35 39.30603 67.22900 23987 ft 503 kts
2026-04-20 15:36 39.32967 67.23167 23987 ft 503 kts
2026-04-20 15:36 39.37580 67.23692 23987 ft 503 kts
2026-04-20 15:36 39.41100 67.24090 23987 ft 503 kts
2026-04-20 15:36 39.44585 67.24471 23987 ft 502 kts
2026-04-20 15:37 39.46909 67.24702 23987 ft 502 kts
2026-04-20 15:37 39.50400 67.25034 23987 ft 502 kts
2026-04-20 15:37 39.55081 67.25479 23987 ft 502 kts
2026-04-20 15:37 39.58560 67.25816 23987 ft 502 kts
2026-04-20 15:38 39.62032 67.26157 23987 ft 502 kts
2026-04-20 15:38 39.64361 67.26386 23987 ft 502 kts
2026-04-20 15:38 39.67870 67.26733 23987 ft 502 kts
2026-04-20 15:38 39.71289 67.27209 23977 ft 505 kts
2026-04-20 15:39 39.74693 67.28577 23983 ft 509 kts 21°
2026-04-20 15:39 39.76806 67.30046 23985 ft 512 kts 31°
2026-04-20 15:39 39.80396 67.33954 23993 ft 515 kts 43°
2026-04-20 15:39 39.83765 67.38389 23989 ft 515 kts 44°
2026-04-20 15:40 39.86254 67.41739 23988 ft 515 kts 44°
2026-04-20 15:40 39.88751 67.45084 23987 ft 515 kts 44°
2026-04-20 15:40 39.90427 67.47315 23987 ft 515 kts 44°
2026-04-20 15:40 39.92944 67.50646 23987 ft 515 kts 44°
2026-04-20 15:41 39.95431 67.53925 23987 ft 515 kts 44°
2026-04-20 15:41 39.98789 67.58345 23987 ft 515 kts 44°
2026-04-20 15:41 40.00455 67.60538 23987 ft 515 kts 44°
2026-04-20 15:41 40.03022 67.63920 23987 ft 515 kts 44°
2026-04-20 15:42 40.06400 67.68388 23986 ft 515 kts 44°
2026-04-20 15:42 40.08060 67.70592 23987 ft 515 kts 44°
2026-04-20 15:42 40.10611 67.73978 23987 ft 514 kts 44°
2026-04-20 15:42 40.13164 67.77345 23986 ft 514 kts 44°
2026-04-20 15:43 40.16527 67.81709 23984 ft 514 kts 43°
2026-04-20 15:43 40.18220 67.83891 23982 ft 514 kts 43°
2026-04-20 15:43 40.20663 67.87047 23979 ft 513 kts 43°
2026-04-20 15:43 40.23933 67.91286 23974 ft 513 kts 44°
2026-04-20 15:44 40.25502 67.93328 23972 ft 513 kts 44°
2026-04-20 15:44 40.28737 67.97549 23968 ft 513 kts 44°
2026-04-20 15:44 40.31199 68.00765 23965 ft 513 kts 44°
2026-04-20 15:44 40.32859 68.02934 23964 ft 513 kts 44°
2026-04-20 15:45 40.36069 68.07106 23963 ft 513 kts 43°
2026-04-20 15:45 40.37684 68.09199 23962 ft 513 kts 43°
2026-04-20 15:45 40.40221 68.12489 23961 ft 513 kts 43°
2026-04-20 15:45 40.42989 68.16087 23961 ft 513 kts 43°
2026-04-20 15:46 40.45617 68.19513 23961 ft 513 kts 43°
2026-04-20 15:46 40.47366 68.21794 23961 ft 513 kts 43°
2026-04-20 15:46 40.50758 68.26231 23907 ft 509 kts 43°
2026-04-20 15:46 40.52426 68.28415 23779 ft 501 kts 43°
2026-04-20 15:47 40.55607 68.32591 23412 ft 480 kts 43°
2026-04-20 15:47 40.57157 68.34628 23239 ft 470 kts 43°
2026-04-20 15:47 40.59425 68.37608 22967 ft 456 kts 43°
2026-04-20 15:47 40.61660 68.40547 22722 ft 443 kts 44°
2026-04-20 15:48 40.64474 68.44380 22138 ft 433 kts 45°
2026-04-20 15:48 40.65865 68.46313 21749 ft 431 kts 45°
2026-04-20 15:48 40.68603 68.50131 20986 ft 426 kts 45°
2026-04-20 15:48 40.69951 68.52007 20510 ft 426 kts 45°
2026-04-20 15:49 40.72701 68.55829 19495 ft 427 kts 45°
2026-04-20 15:49 40.74059 68.57722 18993 ft 427 kts 46°
2026-04-20 15:49 40.76063 68.60667 18232 ft 427 kts 47°
2026-04-20 15:49 40.78020 68.63618 17477 ft 426 kts 47°
2026-04-20 15:50 40.79940 68.66508 16749 ft 424 kts 46°
2026-04-20 15:50 40.82145 68.68993 16348 ft 411 kts 32°
2026-04-20 15:50 40.84579 68.70924 16122 ft 396 kts 28°
2026-04-20 15:50 40.86935 68.72652 15898 ft 383 kts 27°
2026-04-20 15:51 40.89264 68.74342 15679 ft 371 kts 27°
2026-04-20 15:51 40.92229 68.76514 15393 ft 356 kts 28°
2026-04-20 15:51 40.94367 68.78095 15190 ft 345 kts 28°
2026-04-20 15:51 40.95755 68.79126 15061 ft 338 kts 28°
2026-04-20 15:52 40.97739 68.80602 14876 ft 328 kts 28°
2026-04-20 15:52 40.99637 68.82017 14490 ft 326 kts 28°
2026-04-20 15:52 41.02380 68.83688 13471 ft 336 kts
2026-04-20 15:53 41.06111 68.82688 12200 ft 336 kts 322°
2026-04-20 15:53 41.07639 68.80376 11459 ft 335 kts 297°
2026-04-20 15:53 41.08717 68.77700 11193 ft 325 kts 298°
2026-04-20 15:53 41.10030 68.75323 10966 ft 319 kts 316°
2026-04-20 15:54 41.11967 68.73813 10769 ft 312 kts 335°
2026-04-20 15:54 41.13953 68.72796 10584 ft 303 kts 338°
2026-04-20 15:54 41.15906 68.71854 10399 ft 293 kts 338°
2026-04-20 15:54 41.17793 68.70932 10206 ft 283 kts 338°
2026-04-20 15:55 41.19731 68.70326 9865 ft 283 kts 353°
2026-04-20 15:55 41.21693 68.70350 9516 ft 283 kts
2026-04-20 15:55 41.23671 68.70537 9160 ft 280 kts
2026-04-20 15:55 41.25614 68.70734 8802 ft 278 kts
2026-04-20 15:56 41.27547 68.70919 8443 ft 276 kts
2026-04-20 15:56 41.29445 68.71365 8064 ft 277 kts 17°
2026-04-20 15:56 41.31200 68.72414 7715 ft 276 kts 26°
2026-04-20 15:56 41.32861 68.73617 7433 ft 271 kts 27°
2026-04-20 15:57 41.34504 68.74834 7264 ft 261 kts 27°
2026-04-20 15:57 41.36082 68.75994 7039 ft 255 kts 27°
2026-04-20 15:57 41.37599 68.77207 6710 ft 255 kts 36°
2026-04-20 15:57 41.38882 68.78871 6373 ft 255 kts 49°
2026-04-20 15:58 41.39955 68.80728 6119 ft 250 kts 52°
2026-04-20 15:58 41.40974 68.82590 5961 ft 242 kts 52°
2026-04-20 15:58 41.41887 68.84440 5791 ft 236 kts 66°
2026-04-20 15:58 41.42155 68.86562 5619 ft 230 kts 97°
2026-04-20 15:59 41.41626 68.88541 5448 ft 223 kts 126°
2026-04-20 15:59 41.40510 68.89905 5257 ft 217 kts 154°
2026-04-20 15:59 41.39137 68.90675 5116 ft 209 kts 161°
2026-04-20 15:59 41.37774 68.91317 4921 ft 205 kts 161°
2026-04-20 16:00 41.36430 68.91949 4633 ft 206 kts 161°
2026-04-20 16:00 41.35080 68.92602 4376 ft 205 kts 160°
2026-04-20 16:00 41.33749 68.93259 4128 ft 204 kts 160°
2026-04-20 16:00 41.32405 68.93931 4004 ft 201 kts 160°
2026-04-20 16:01 41.31089 68.94593 3999 ft 203 kts 159°
2026-04-20 16:01 41.29771 68.95258 3995 ft 203 kts 159°
2026-04-20 16:01 41.28446 68.95927 3993 ft 203 kts 159°
2026-04-20 16:01 41.27137 68.96587 3992 ft 203 kts 159°
2026-04-20 16:02 41.25812 68.97256 3992 ft 203 kts 159°
2026-04-20 16:02 41.24464 68.97935 3992 ft 204 kts 159°
2026-04-20 16:02 41.23202 68.98804 3972 ft 204 kts 133°
2026-04-20 16:02 41.22618 69.00463 3989 ft 202 kts 93°
2026-04-20 16:03 41.22694 69.02331 3998 ft 201 kts 78°
2026-04-20 16:03 41.22969 69.04151 3998 ft 200 kts 77°
2026-04-20 16:03 41.23230 69.05922 3991 ft 183 kts 78°
2026-04-20 16:03 41.23444 69.07616 3517 ft 187 kts 79°
2026-04-20 16:04 41.23634 69.09318 3115 ft 184 kts 81°
2026-04-20 16:04 41.23805 69.10956 3001 ft 165 kts 81°
2026-04-20 16:04 41.23953 69.12382 2969 ft 151 kts 81°
2026-04-20 16:04 41.24103 69.13796 2987 ft 151 kts 81°
2026-04-20 16:05 41.24250 69.15180 2990 ft 149 kts 81°
2026-04-20 16:05 41.24394 69.16517 2843 ft 141 kts 80°
2026-04-20 16:05 41.24532 69.17806 2547 ft 138 kts 81°
2026-04-20 16:05 41.24668 69.19061 2229 ft 137 kts 81°
2026-04-20 16:06 41.24804 69.20312 1988 ft 138 kts 81°
2026-04-20 16:06 41.24945 69.21608 1990 ft 143 kts 81°
2026-04-20 16:06 41.25098 69.22932 1949 ft 144 kts 81°
2026-04-20 16:06 41.25230 69.24250 1762 ft 144 kts 81°
2026-04-20 16:07 41.25374 69.25573 1559 ft 142 kts 80°
2026-04-20 16:07 41.25515 69.26884 1425 ft 142 kts 81°
2026-04-20 16:07 41.25639 69.27962 1425 ft 92 kts 81°
2026-04-20 16:07 41.25710 69.28672 1425 ft 62 kts 82°
2026-04-20 16:08 41.25768 69.28877 1425 ft 7 kts 30°
2026-04-20 16:08 41.25816 69.28909 1425 ft 8 kts 24°
2026-04-20 16:08 41.25871 69.28938 1425 ft 9 kts 21°
2026-04-20 16:08 41.25935 69.28944 1425 ft 9 kts 348°
2026-04-20 16:09 41.25999 69.28906 1425 ft 10 kts 318°
2026-04-20 16:09 41.26055 69.28839 1425 ft 11 kts 318°
2026-04-20 16:09 41.26114 69.28767 1425 ft 11 kts 316°
2026-04-20 16:09 41.26172 69.28685 1425 ft 12 kts 298°
2026-04-20 16:10 41.26185 69.28570 1425 ft 12 kts 271°
2026-04-20 16:10 41.26192 69.28449 1425 ft 13 kts 274°
2026-04-20 16:10 41.26185 69.28324 1425 ft 13 kts 262°
2026-04-20 16:10 41.26171 69.28198 1425 ft 13 kts 262°
2026-04-20 16:11 41.26156 69.28069 1425 ft 14 kts 260°
2026-04-20 16:11 41.26141 69.27937 1425 ft 14 kts 261°
2026-04-20 16:11 41.26127 69.27801 1425 ft 14 kts 262°
2026-04-20 16:11 41.26112 69.27666 1425 ft 14 kts 262°
2026-04-20 16:12 41.26097 69.27527 1425 ft 15 kts 261°
2026-04-20 16:12 41.26080 69.27387 1425 ft 15 kts 262°
2026-04-20 16:12 41.26071 69.27245 1425 ft 14 kts 295°
2026-04-20 16:12 41.26124 69.27139 1425 ft 13 kts 266°
2026-04-20 16:13 41.26093 69.27023 1425 ft 13 kts 247°
2026-04-20 16:13 41.26040 69.26936 1425 ft 12 kts 189°
2026-04-20 16:13 41.26004 69.26946 1425 ft 0 kts 153°
2026-04-20 16:15 41.26011 69.26942 1425 ft 0 kts 156°
2026-04-20 16:15 41.26012 69.26941 1425 ft 1 kts 156°
2026-04-20 16:15 41.26020 69.26939 1425 ft 0 kts 190°
2026-04-20 16:16 41.26024 69.26939 1425 ft 1 kts 196°
2026-04-20 16:16 41.26031 69.26942 1425 ft 1 kts 240°
2026-04-20 16:16 41.26034 69.26932 1425 ft 2 kts 319°
2026-04-20 16:16 41.26048 69.26917 1425 ft 3 kts 320°
2026-04-20 16:17 41.26070 69.26896 1425 ft 4 kts 326°
2026-04-20 16:17 41.26098 69.26872 1425 ft 5 kts 327°
2026-04-20 16:17 41.26133 69.26841 1425 ft 6 kts 327°
2026-04-20 16:17 41.26165 69.26814 1425 ft 0 kts 328°